BEIJING 1 (TSINGHUA) 1 28890U 05043A 23341.11401469 .00000471 00000-0 10333-3 0 9993 2 28890 98.1792 100.7153 0013835 292.5827 67.3910 14.62041538965681 HJ-1A 1 33320U 08041A 23341.20047457 .00001331 00000-0 18638-3 0 9993 2 33320 97.6370 352.8544 0019068 282.2047 77.7030 14.78991313821826 HJ-1B 1 33321U 08041B 23341.19442781 .00001176 00000-0 16199-3 0 9998 2 33321 97.6359 357.3284 0038016 328.4700 31.4234 14.79537304821839 YAOGAN 4 1 33446U 08061A 23340.98190859 .00001344 00000-0 18857-3 0 9990 2 33446 97.8656 271.8327 0015240 187.4825 172.6161 14.78996677808992 DEIMOS 1 1 35681U 09041A 23341.08144034 .00000760 00000-0 12584-3 0 9990 2 35681 97.6754 168.4423 0000572 6.3701 353.7515 14.72862257770885 DMC 2 1 35683U 09041C 23341.14187732 .00001067 00000-0 17478-3 0 9999 2 35683 97.7533 132.1760 0001286 78.1809 281.9543 14.72647696770593 RISAT 1 1 38248U 12017A 23340.99558837 .00007749 00000-0 36934-3 0 9997 2 38248 97.5362 353.3132 0003161 166.8871 193.2446 15.19384985640223 DMC 3-FM1 1 40715U 15032A 23341.17961613 .00000887 00000-0 11515-3 0 9994 2 40715 97.7746 220.4830 0005303 190.0530 170.0579 14.83150020452966 DMC 3-FM2 1 40716U 15032B 23341.20301166 .00000819 00000-0 10673-3 0 9999 2 40716 97.7797 221.4496 0007043 198.7547 161.3409 14.83161590452967 DMC 3-FM3 1 40717U 15032C 23341.15702045 .00000874 00000-0 11347-3 0 9995 2 40717 97.7842 222.5754 0008581 197.4050 162.6871 14.83155083452968